Cairo, Egypt

12:33 AM EET on January 20, 2017 (GMT +0200)
Cairo International

Weather History for HECA - October, 2011

Change the Weather History Date:

Sunday, October 30, 2011

  Actual Average Record
Temperature  
Mean Temperature 69 °F -  
Max Temperature 75 °F 74 °F 89 °F (2004)
Min Temperature 63 °F 57 °F 35 °F (1999)
Cooling Degree Days 4    
Growing Degree Days 19 (Base 50)    
Moisture  
Dew Point 50 °F    
Average Humidity 52    
Maximum Humidity 68    
Minimum Humidity 30    
Precipitation  
Precipitation 0.00 in 0.00 in - ()
Sea Level Pressure  
Sea Level Pressure 29.99 in    
Wind  
Wind Speed 5 mph ()    
Max Wind Speed 12 mph    
Max Gust Speed -    
Visibility 4.0 miles    
Events      
Averages and records for this station are not official NWS values.
T = Trace of Precipitation, MM = Missing Value Source: Averaged Metar Reports

Daily Weather History Graph

Daily Weather History Graph

Search for Another Location

Airport or City:

Trip Planner

Search our weather history database for the weather conditions in past years. The results will help you decide how hot, cold, wet, or windy it might be!

Date:

Astronomy

Oct. 30, 2011 Rise Set
Actual Time 6:06 AM EET 5:09 PM EET
Civil Twilight 5:41 AM EET 5:33 PM EET
Nautical Twilight 5:13 AM EET 6:02 PM EET
Astronomical Twilight 4:45 AM EET 6:30 PM EET
Moon 9:54 AM EET (10/30) 8:28 PM EET (10/30)
Length of Visible Light 11h 52m
Length of Day
11h 02m
Waxing Crescent, 18% of the Moon is Illuminated
Oct 30
Waxing Crescent
Nov 2
First Quarter
Nov 10
Full
Nov 18
Last Quarter
Nov 25
New

Hourly Weather History & Observations

Time (EET) Temp. Dew Point Humidity Pressure Visibility Wind Dir Wind Speed Gust Speed Precip Events Conditions
12:00 AM 68.0 °F 50.0 °F 52% 30.04 in 1.9 mi NW 5.8 mph - N/A   Haze
1:00 AM 66.2 °F 51.8 °F 60% 30.01 in 1.9 mi NW 3.5 mph - N/A   Haze
1:30 AM 66.2 °F 51.8 °F 60% 30.01 in 1.9 mi NW 3.5 mph - N/A   Haze
2:00 AM 66 °F 51 °F 49% 30.01 in 2 mi WNW 4.6 mph - -   Haze
2:00 AM 66.2 °F 51.8 °F 60% 30.01 in 1.9 mi WNW 4.6 mph - N/A   Haze
2:30 AM 66.2 °F 51.8 °F 60% 30.01 in 1.9 mi WNW 4.6 mph - N/A   Haze
3:00 AM 64.4 °F 51.8 °F 64% 29.98 in 1.9 mi NW 5.8 mph - N/A   Haze
3:30 AM 64.4 °F 51.8 °F 64% 29.98 in 1.9 mi NW 2.3 mph - N/A   Haze
4:00 AM 64.4 °F 51.8 °F 64% 29.98 in 1.9 mi NW 5.8 mph - N/A   Haze
4:30 AM 64.4 °F 51.8 °F 64% 30.01 in 1.9 mi WNW 3.5 mph - N/A   Haze
5:00 AM 64.4 °F 51.8 °F 64% 29.98 in 1.9 mi WNW 3.5 mph - N/A   Haze
5:30 AM 60.8 °F 50.0 °F 68% 29.98 in 1.9 mi SSW 2.3 mph - N/A   Haze
6:00 AM 60.8 °F 50.0 °F 68% 30.01 in 1.9 mi Variable 2.3 mph - N/A   Haze
6:30 AM 64.4 °F 50.0 °F 59% 30.01 in 1.9 mi West 3.5 mph - N/A   Haze
7:00 AM 62.6 °F 50.0 °F 63% 30.01 in 2.5 mi Variable 2.3 mph - N/A   Haze
7:30 AM 64.4 °F 51.8 °F 64% 30.01 in 3.7 mi SSW 2.3 mph - N/A   Unknown
8:00 AM 67 °F 51 °F 46% 30.02 in 2 mi SSW 3.5 mph - -   Haze
8:00 AM 66.2 °F 51.8 °F 60% 30.01 in 1.9 mi SSW 3.5 mph - N/A   Haze
8:30 AM 68.0 °F 51.8 °F 56% 30.01 in 1.9 mi WSW 5.8 mph - N/A   Haze
9:00 AM 68.0 °F 53.6 °F 60% 30.01 in 2.5 mi West 5.8 mph - N/A   Haze
9:30 AM 68.0 °F 53.6 °F 60% 30.01 in 3.7 mi West 5.8 mph - N/A   Partly Cloudy
10:00 AM 69.8 °F 51.8 °F 53% 30.01 in 6.2 mi NW 10.4 mph - N/A   Partly Cloudy
10:30 AM 69.8 °F 51.8 °F 53% 30.01 in 6.2 mi NW 10.4 mph - N/A   Partly Cloudy
11:00 AM 71.6 °F 50.0 °F 46% 30.01 in 6.2 mi WNW 10.4 mph - N/A   Scattered Clouds
11:30 AM 71.6 °F 48.2 °F 43% 29.98 in 6.2 mi NW 10.4 mph - N/A   Scattered Clouds
12:00 PM 71.6 °F 48.2 °F 43% 29.98 in 6.2 mi NW 10.4 mph - N/A   Scattered Clouds
12:30 PM 73.4 °F 48.2 °F 41% 29.98 in 6.2 mi West 6.9 mph - N/A   Scattered Clouds
1:00 PM 71.6 °F 46.4 °F 41% 29.95 in 6.2 mi NNW 8.1 mph - N/A   Scattered Clouds
1:30 PM 73.4 °F 48.2 °F 41% 29.95 in 6.2 mi NW 9.2 mph - N/A   Scattered Clouds
2:00 PM 74 °F 49 °F 30% 29.96 in 6 mi NW 9.2 mph - -   Partly Cloudy
2:00 PM 73.4 °F 50.0 °F 44% 29.95 in 6.2 mi NW 9.2 mph - N/A   Scattered Clouds
2:30 PM 73.4 °F 46.4 °F 38% 29.95 in 6.2 mi WNW 6.9 mph - N/A   Scattered Clouds
3:00 PM 73.4 °F 46.4 °F 38% 29.95 in 6.2 mi WNW 10.4 mph - N/A   Scattered Clouds
3:30 PM 75.2 °F 46.4 °F 36% 29.95 in 6.2 mi WNW 10.4 mph - N/A   Scattered Clouds
4:00 PM 73.4 °F 44.6 °F 36% 29.95 in 6.2 mi NNW 11.5 mph - N/A   Scattered Clouds
4:30 PM 73.4 °F 44.6 °F 36% 29.95 in 6.2 mi NW 11.5 mph - N/A   Scattered Clouds
5:00 PM 73.4 °F 44.6 °F 36% 29.95 in 6.2 mi NW 9.2 mph - N/A   Scattered Clouds
5:30 PM 71.6 °F 50.0 °F 46% 29.95 in 6.2 mi NW 11.5 mph - N/A   Scattered Clouds
6:00 PM 71.6 °F 50.0 °F 46% 29.95 in - NNW 11.5 mph - N/A   Clear
6:30 PM 69.8 °F 50.0 °F 49% 29.98 in - NW 10.4 mph - N/A   Clear
7:00 PM 69.8 °F 50.0 °F 49% 29.98 in - NW 10.4 mph - N/A   Clear
7:30 PM 69.8 °F 50.0 °F 49% 29.98 in - NW 10.4 mph - N/A   Clear
8:00 PM 69 °F 50 °F 40% 30.00 in 6 mi North 6.9 mph - -  
8:00 PM 68.0 °F 50.0 °F 52% 29.98 in - NW 6.9 mph - N/A   Clear
8:30 PM 68.0 °F 50.0 °F 52% 29.98 in - NNW 9.2 mph - N/A   Clear
9:00 PM 68.0 °F 50.0 °F 52% 29.98 in - NNW 5.8 mph - N/A   Clear
9:30 PM 66.2 °F 50.0 °F 56% 29.98 in - NNW 6.9 mph - N/A   Clear
10:00 PM 66.2 °F 51.8 °F 60% 30.01 in - North 3.5 mph - N/A   Clear
10:30 PM 66.2 °F 51.8 °F 60% 30.01 in - North 3.5 mph - N/A   Clear
11:00 PM 64.4 °F 51.8 °F 64% 29.98 in - WNW 2.3 mph - N/A   Clear
11:30 PM 66.2 °F 51.8 °F 60% 29.98 in - NW 4.6 mph - N/A   Clear